Tracking 31027 objects as of 19-Jul-2025
HD Live streaming from Space Station
objects crossing your sky now

STARLINK-3191

Track STARLINK-3191 now!
10-day predictions
STARLINK-3191 is classified as:


NORAD ID: 49770
Int'l Code: 2021-115AY
Perigee: 546.0 km
Apogee: 547.8 km
Inclination: 53.2 °
Period: 95.4 minutes
Semi major axis: 6917 km
RCS: Unknown
Launch date: December 2, 2021
Source: United States (US)
Launch site: AIR FORCE EASTERN TEST RANGE (AFETR)
Your satellite tracking list
EUTE 33A (EB 3)
Track 1 satellite(s)




NASA's NSSDC Master Catalog

Two Line Element Set (TLE):
1 49770U 21115AY  25199.77595774 -.00000258  00000-0  18557-5 0  9991
2 49770  53.2184 109.2534 0001329  97.4300 262.6843 15.08833662201471
Source of the keplerian elements: AFSPC